Volver al catálogo

OPS 4988

GREB 6

ActivoCienciaLEO
NORAD 1271·PAYLOAD·🇺🇸 United States

Lanzado Mar 9, 1965 desde Vandenberg Space Force Base

Loading…

Próximos Pases (próximas 24 horas)

TLE

ActualizadoSource: Space-Track

Época: Sep 14, 2026, 05:05 UTC

1 01271U 65016A   26257.21200103  .00000036  00000-0  63445-4 0  9995
2 01271  70.0815 328.3172 0022979 307.9120  81.1993 13.96671953131243

Sigue OPS 4988 en tiempo real con AllMySat

Download on the App Store